www.pogodaiklimat.ru

Погода и климат >> Архив погоды >> Россия >> Волгоградская область >> Волгоград город


ПОГОДА в Волгограде город

  • Прогноз погоды в Волгограде город
  • Монитор погоды в Волгограде город
  • Климат города

АРХИВ ПОГОДЫ в Волгограде город

Время (UTC), дата Ветер
(напр.,м/с)
 
Видим.   Явления Облачность Т
(С)
Тd
(С)
f
(%)
Тe
(С)
Тes
(С)
Комфортность P
(гПа)
Po
(гПа)
Тmin
(С)
Tmax
(С)
R
(мм)
S
(см)
03 16.03 В 1 10 км 8/8 1000 м
[Sc]
+3.1 -6.9 48 +2 +2 1015.6 1001.2 +3.1
06 16.03 В 1 10 км 10/0
[Ac und]
+3.8 -6.9 45 +3 +5 1015.1 1000.8 +2.6
09 16.03 ЮВ 1 10 км 10/0
[Ci]
+9.6 -5.9 33 +10 +19 1012.9 998.9
12 16.03 ЮВ 1 10 км 10/0
[Ac As]
+10.4 -5.2 33 +11 +12 1011.8 997.8
15 16.03 Ю 3 10 км 10/8 1000 м
[Cb cap Ac und]
+8.3 -1.2 51 +6 +6 1012.2 998.1 +11.4
18 16.03 ЮВ 1 10 км слабый ливневой дождь 10/8 300 м
[Cb cap Ac und]
+5.1 +1.0 75 +4 +4 1013.1 998.9
21 16.03 В 1 10 км {ливн. осадки} 10/6 300 м
[Cb cap Ac und]
+4.3 +1.2 80 +3 +3 1012.4 998.2
00 17.03 штиль 0 10 км {ливн. осадки} 10/5 300 м
[Sc diur, vesp Ac und]
+3.8 +0.9 81 +3 +3 1012.3 998.0
03 17.03 В 1 10 км 6/0
[Ac As]
+2.8 +0.5 85 +1 +1 1012.8 998.5 +2.7 0.3
06 17.03 Ю 1 10 км 10/8 300 м
[Sc Ac trans]
+4.0 +0.9 80 +3 +3 1013.8 999.5 +2.5
09 17.03 Ю 2 10 км 10/5 600 м
[Sc Ac trans]
+7.7 +1.2 63 +6 +8 1013.5 999.4
12 17.03 ЮЗ 1 10 км 10/5 600 м
[Sc diur, vesp Ac trans Ci fib]
+8.9 +1.2 58 +9 +10 1013.4 999.3
15 17.03 ЮЗ 2 10 км 10/3 600 м
[Sc diur, vesp Ac trans Ci fib]
+7.3 +1.1 65 +5 +5 1013.8 999.7 +9.2
18 17.03 ЮЗ 1 10 км 10/5 300 м
[Sc diur, vesp Ac trans]
+6.2 +1.5 72 +5 +5 1014.3 1000.1
21 17.03 штиль 0 10 км 10/5 300 м
[Sc diur, vesp Ac trans]
+5.2 +1.7 78 +4 +4 1014.3 1000.1
00 18.03 штиль 0 10 км 6/0
[Ci fib]
+3.7 +0.8 81 +3 +3 1014.4 1000.1
03 18.03 В 1 10 км 6/0
[Ci fib]
+3.4 +0.9 84 +2 +2 1014.5 1000.2 +3.3
06 18.03 В 1 10 км 6/0
[Ac cast Ci fib]
+5.8 +1.4 73 +5 +9 1014.9 1000.7 +3.3
09 18.03 ЮВ 2 10 км 9/3 1000 м
[Cu med, cong Ac cast Ci fib]
+10.4 +1.9 56 +9 +13 1013.9 999.9
12 18.03 ЮВ 1 10 км 9/4 1000 м
[Cu med, cong Ac cast]
+11.3 -0.7 43 +12 +13 1012.5 998.6
15 18.03 В 1 10 км 9/4 1000 м
[Sc diur, vesp Ac cast]
+10.0 +0.5 52 +10 +10 1012.2 998.2 +11.7
18 18.03 Ю 2 10 км 9/5 1000 м
[Sc diur, vesp Ac cast]
+8.1 +1.4 63 +6 +6 1013.0 998.9
21 18.03 Ю 3 10 км 9/0
[Ac cast Ci fib]
+4.8 +1.1 77 +1 +1 1013.0 998.8
00 19.03 ЮВ 1 10 км 8/0
[Ci]
+3.4 +0.8 83 +2 +2 1012.4 998.1
03 19.03 Ю 1 1000 м в посл. час ливневой дождь 10/10 100 м
[Cb cap]
+1.9 +0.3 89 0 0 1011.9 997.6 +1.9 0.1
06 19.03 Ю 2 1000 м слабый ливневой дождь 10/10 100 м
[Cb cap]
+2.2 +1.0 92 -1 -1 1012.8 998.5 +1.8
09 19.03 Ю 2 500 м туман {ливн. осадки} ?/? +3.2 +2.1 92 0 0 1012.1 997.8
12 19.03 Ю 2 10 км {ливн. осадки, туман} 10/10 300 м
[Cb cap]
+5.8 +2.9 82 +3 +3 1011.1 997.0
15 19.03 Ю 2 10 км 10/10 600 м
[Sc diur, vesp]
+6.5 +1.0 68 +4 +4 1011.0 996.9 +7.0 3
18 19.03 Ю 2 10 км 10/10 300 м
[Sc diur, vesp]
+4.4 +0.6 76 +2 +2 1010.7 996.5
21 19.03 Ю 2 10 км 10/10 300 м
[Sc diur, vesp]
+2.9 -0.2 80 -0 -0 1010.6 996.3
00 20.03 ЮВ 1 10 км 10/10 300 м
[Sc diur, vesp]
+2.2 -0.2 84 +1 +1 1009.7 995.4
03 20.03 В 2 10 км 10/8 300 м
[Sc diur, vesp Ac lent]
+1.9 -0.5 84 -1 -1 1009.1 994.7 +1.9
06 20.03 В 1 10 км 10/10 300 м
[Sc]
+3.4 +1.0 84 +2 +2 1009.4 995.1 +1.9
09 20.03 В 2 10 км 10/0
[Ac As]
+6.8 +2.8 76 +5 +8 1009.4 995.3
12 20.03 В 2 10 км 10/0
[Ac As]
+9.6 +0.7 54 +8 +10 1008.2 994.3
15 20.03 штиль 0 10 км 10/0
[Ac und]
+8.7 +0.2 55 +8 +8 1009.2 995.2 +9.9
18 20.03 В 1 10 км 10/5 600 м
[Sc Ac und]
+8.4 +1.9 64 +8 +8 1009.9 995.9
21 20.03 СВ 1 10 км 10/8 600 м
[Sc Ac und]
+7.5 +2.0 68 +7 +7 1009.6 995.5
00 21.03 СВ 2 10 км 10/5 300 м
[Sc Ac und]
+5.0 +1.6 79 +2 +2 1009.8 995.6
03 21.03 СВ 2 10 км 10/8 300 м
[St Ac und]
+1.3 -1.1 84 -2 -2 1011.0 996.6 +1.3
06 21.03 СВ 3 10 км 10/8 300 м
[Sc Ac und]
+1.0 -2.0 80 -3 -3 1011.3 996.9 +0.7
09 21.03 С 2 10 км слабый дождь 10/10 200 м
[Frnb]
+0.9 -1.0 87 -3 -3 1011.4 996.9
12 21.03 С 3 10 км в посл. час дождь 10/10 200 м
[Frnb]
+0.6 -1.0 89 -4 -4 1011.0 996.6
15 21.03 С 3 2000 м слабый ливневой снег {дождь} 10/10 100 м
[Cb cap]
-0.1 -1.3 92 -5 -5 1011.6 997.1 +1.3 3
18 21.03 С 3 2000 м слабый ливневой снег {дождь} 10/8 200 м
[Cb cap Ac und]
-1.0 -2.1 92 -6 -6 1012.0 997.4
21 21.03 С 3 4000 м слабый дождь со снегом {ливн. осадки} 10/10 200 м
[Frnb Ns]
-0.9 -2.4 90 -6 -6 1011.9 997.4
00 22.03 С 4 10 км {ливн. осадки, дождь} [диам. гололёда 1 мм] 8/8 300 м
[Sc]
-0.9 -3.2 84 -7 -7 1012.2 997.7
03 22.03 С 4
{11}
10 км [диам. гололёда 1 мм] 10/8 300 м
[Sc Ac und]
-1.5 -4.2 82 -7 -7 1013.4 998.8 -1.5 4 3
06 22.03 С 4 10 км 10/10 300 м
[Sc diur, vesp]
-1.8 -4.5 82 -8 -8 1014.4 999.8 -1.9
09 22.03 С 4 10 км {ливн. осадки} 10/10 300 м
[Cb cap]
-1.5 -4.0 83 -7 -7 1015.1 1000.5
12 22.03 С 3 10 км {ливн. осадки} 10/10 300 м
[Sc]
-1.3 -3.4 86 -6 -6 1016.2 1001.6
15 22.03 СВ 3 10 км 10/10 200 м
[St]
-1.4 -2.8 90 -6 -6 1018.0 1003.4 -1.2 0.0
18 22.03 СВ 4 10 км 10/10 200 м
[St]
-1.5 -3.2 88 -7 -7 1019.3 1004.6
21 22.03 СВ 2 10 км 10/10 200 м
[St]
-1.5 -2.9 90 -5 -5 1020.0 1005.4

 

Местоположение метеостанции Волгоград город (Волгоградская область, Россия): широта 48.67 долгота 44.45 высота над уровнем моря 116 м.

В архиве по умолчанию представлена погода в Волгограде город за последнюю неделю. Архивные данные за месяц целиком и за предыдущие месяцы, начиная с января 2011 года, Вы можете получить, выбрав интересующий диапазон дат из раскрывающегося списка и нажав кнопку "Ввод!".

Внимание! Время в таблицах - всемирное. Для получения местного времени необходимо прибавить поправку, которая в Волгограде город равна 3 ч.

Смотрите также архив погоды в соседних городах и на ближайших метеорологических станциях:

Погода в Волгограде (Волгоградская область, Россия) (14 км)
Погода в Калаче-на-Дону (Волгоградская область, Россия) (71 км)
Погода в Иловле (Волгоградская область, Россия) (77 км)
Погода в Малых Дербетах (Калмыкия, Россия) (84 км)
Погода в Нижнем Чире (Волгоградская область, Россия) (105 км)
Погода в Ольховке (Волгоградская область, Россия) (134 км)
Погода в Фролове (Волгоградская область, Россия) (138 км)
Погода в Черный Яр (Астраханская область, Россия) (140 км)
Погода в Кетченерах (Калмыкия, Россия) (150 км)
Погода в Котельниково (Волгоградская область, Россия) (151 км)

Пояснения к столбцам:

Ветер - указаны скорость ветра в м/с - средняя за 10 мин, порывы в срок и между сроками (в фигурных скобках) и направление, откуда дует ветер: С - северный, СВ - северо-восточный, В - восточный, ЮВ - юго-восточный, Ю - южный, ЮЗ - юго-западный, З - западный, СЗ - северо-западный.
Видимость - горизонтальная дальность видимости в метрах или километрах. При видимости от 1 до 10 км при отсутствии осадков обычно наблюдается дымка, при ухудшении видимости до 1 км и менее - туман. В сухую погоду видимость может ухудшаться дымом, пылью или мглою.
Явления - указаны атмосферные явления, наблюдавшиеся в срок или в последний час перед сроком; фигурными скобками обозначены явления, наблюдавшиеся между сроками (за 1-3 часа до срока); квадратными скобками обозначены град или гололедные отложения с указанием их диаметра в мм.
Облачность - указаны через наклонную черту общая и нижняя облачность в баллах и высота нижней границы облаков в метрах; квадратными скобками обозначены формы облаков: Ci - перистые, Cs - перисто-слоистые, Cc - перисто-кучевые, Ac - высококучевые, As - высокослоистые, Sc - слоисто-кучевые, Ns - слоисто-дождевые, Cu - кучевые, Cb - кучево-дождевые. Подробнее классификацию облаков см. в Атласе облаков (PDF).
T - Температура воздуха - температура, измеренная на высоте 2 м над землей.
Td - Температура точки росы - температура, при понижении до которой содержащийся в воздухе водяной пар достигнет насыщения.
f - Относительная влажность воздуха - влажноcть воздуха, измеренная на высоте 2 м над землей.
Te - Эффективная температура - температура, которую ощущает одетый по сезону человек в тени. Характеристика душности погоды. При расчете учитывается влияние влажности воздуха и скорости ветра на теплоощущения человека.
Tes - Эффективная температура на солнце - температура, которую ощущает человек, с поправкой на солнечный нагрев. Характеристика знойности погоды. Зависит от высоты солнца над горизонтом, облачности и скорости ветра. Ночью, в пасмурную погоду, а также при ветре 12 м/с и более поправка равна нулю.
P - Атмосферное давление - приведенное к уровню моря атмосферное давление.
Po - Атмосферное давление - измеренное на уровне метеостанции атмосферное давление.
Tmin - Минимальная температура - минимум температуры воздуха на высоте 2 м над землей.
Tmax - Максимальная температура - максимум температуры воздуха на высоте 2 м над землей.
R - Количество осадков - Количество выпавших осадков, мм. При наведении курсора мыши на число - период времени, за который выпало указанное количество осадков.
S - Снежный покров - Высота снежного покрова, см. При наведении курсора мыши на число - состояние снежного покрова и степень покрытия местности в баллах.